Location: Maignaut
(43.8886°N, 0.4051°E)
Time: 08:02:42
(UTC+00:00)

Cosmos 2026 Rocket - Pass Details

Date: 27 February 2020
Orbit: 938 x 1002 km, 82.9° (Epoch: 30 March)

Event Time Altitude Azimuth Distance (km) Brightness Sun altitude
Rises 19:48:44 0° 354° (N) 3,663 7.2 -23.3°
Reaches altitude 10° 19:51:18 10° 358° (N) 2,703 6.5 -23.7°
Maximum altitude 19:57:26 65° 79° (E) 1,042 3.8 -24.8°
Enters shadow 19:58:22 57° 123° (ESE) 1,108 3.9 -24.9°
